SCP
0 0 0 0 0 0 0 0 0 0 0 0 0 0 0 0 0 0 0 0 0 0
0 0 0 0 0 0 0 0 0 0 0 0 0 0 0 0 0 0 0 0 0 0
0 0 0 0 0 0 0 0 0 0 0 0 0 0 0 0 0 0 0 0 0 0
0 0 0 0 0 0 0 0 0 0 0 0 0 0 0 0 0 0 0 0 0 0
0 0 0 0 0 0 0 0 0 0 0 0 0 0 0 0 0 0 0 0 0 0
0 0 0 0 0 0 0 0 0 0 0 0 0 0 0 0 0 0 0 0 0 0
0 0 0 0 0 0 0 0 0 0 0 0 0 0 0 0 0 0 0 0 0 0
0 0 0 0 0 0 0 0 0 0 0 0 0 0 0 0 0 0 0 0 0 0
0 0 0 0 0 0 0 0 0 0 0 0 0 0 0 0 0 0 0 0 0 0
0 0 0 0 0 0 0 0 0 0 0 0 0 0 0 0 0 0 0 0 0 0
0 0 0 0 0 0 0 0 0 0 0 0 0 0 0 0 0 0 0 0 0 0
0 0 0 0 0 0 0 0 0 0 0 0 0 0 0 0 0 0 0 0 0 0
0 0 0 0 0 0 0 0 0 0 0 0 0 0 0 0 0 0 0 0 0 0
0 0 0 0 0 0 0 0 0 0 0 0 0 0 0 0 0 0 0 0 0 0
Wind_Speed_500mb
77 73 66 63 55 52 43 41 39 36 31 25 20 16 15 13 13 13 14 16 16 15
75 72 61 59 48 47 45 43 40 34 28 22 18 16 14 12 12 13 15 16 15 13
71 69 60 57 55 50 46 44 38 31 26 21 18 14 12 11 11 12 13 14 12 12
72 66 59 55 54 49 46 41 36 30 25 20 16 12 10 9 9 10 12 12 12 15
66 62 60 57 53 48 44 40 34 29 25 20 15 11 9 8 7 10 13 15 16 18
65 63 60 56 52 48 44 39 35 30 24 19 15 12 8 4 5 10 14 17 19 20
62 59 57 55 52 47 43 38 35 30 25 19 15 11 7 3 6 11 15 18 19 19
57 56 55 54 50 47 43 39 34 29 24 21 15 10 6 4 7 11 16 19 20 20
57 58 57 54 51 48 45 40 34 31 27 19 16 13 9 8 9 12 15 18 21 22
58 57 56 54 52 49 44 39 37 32 24 21 18 15 12 10 11 11 16 18 23 24
59 60 57 55 51 47 44 41 34 29 27 23 20 18 15 13 13 12 15 18 23 26
61 62 59 56 50 49 47 41 37 32 28 24 22 18 17 17 14 13 15 17 22 25
60 57 53 45 57 53 47 41 37 34 30 27 23 19 19 20 16 16 15 15 20 23
60 55 51 59 62 53 51 46 40 36 33 28 23 20 21 22 20 17 14 14 18 22
Wind_Direction_500mb
213 212 213 218 222 215 218 217 215 216 218 221 226 233 243 254 266 274 281 287 287 292
211 212 211 212 213 210 209 210 211 213 214 215 220 229 243 257 273 285 295 301 304 309
206 205 206 204 207 207 206 205 207 208 208 210 216 226 239 253 267 283 299 310 323 325
202 199 199 206 205 203 200 201 202 202 203 205 210 217 230 247 268 289 306 322 327 323
197 197 200 199 196 196 196 197 197 197 197 198 200 205 218 239 270 302 319 319 316 313
195 198 194 192 192 192 193 194 192 191 192 193 194 199 208 240 298 317 319 317 311 307
195 194 193 191 191 192 190 191 189 189 190 193 198 200 206 243 313 322 325 322 317 310
197 193 191 190 190 189 189 188 190 191 195 198 196 204 220 266 305 320 325 329 327 318
196 193 192 191 191 190 190 191 193 198 198 197 205 210 226 261 294 310 321 329 331 325
200 197 195 194 194 194 194 196 200 200 197 205 210 218 232 253 278 299 310 328 333 334
206 203 199 198 197 197 201 204 202 201 205 207 214 224 240 251 267 287 299 322 330 334
211 208 203 201 203 206 208 204 206 207 208 212 220 229 244 254 264 273 292 313 327 332
219 214 209 217 220 212 208 210 209 209 209 215 223 229 242 254 260 271 287 314 319 328
221 213 219 227 223 213 212 208 208 210 213 219 228 237 244 251 261 264 279 295 306 327
Wind_Speed_850mb
77 73 66 63 55 52 43 41 39 36 31 25 20 16 15 13 13 13 14 16 16 15
75 72 61 59 48 47 45 43 40 34 28 22 18 16 14 12 12 13 15 16 15 13
71 69 60 57 55 50 46 44 38 31 26 21 18 14 12 11 11 12 13 14 12 12
72 66 59 55 54 49 46 41 36 30 25 20 16 12 10 9 9 10 12 12 12 15
66 62 60 57 53 48 44 40 34 29 25 20 15 11 9 8 7 10 13 15 16 18
65 63 60 56 52 48 44 39 35 30 24 19 15 12 8 4 5 10 14 17 19 20
62 59 57 55 52 47 43 38 35 30 25 19 15 11 7 3 6 11 15 18 19 19
57 56 55 54 50 47 43 39 34 29 24 21 15 10 6 4 7 11 16 19 20 20
57 58 57 54 51 48 45 40 34 31 27 19 16 13 9 8 9 12 15 18 21 22
58 57 56 54 52 49 44 39 37 32 24 21 18 15 12 10 11 11 16 18 23 24
59 60 57 55 51 47 44 41 34 29 27 23 20 18 15 13 13 12 15 18 23 26
61 62 59 56 50 49 47 41 37 32 28 24 22 18 17 17 14 13 15 17 22 25
60 57 53 45 57 53 47 41 37 34 30 27 23 19 19 20 16 16 15 15 20 23
60 55 51 59 62 53 51 46 40 36 33 28 23 20 21 22 20 17 14 14 18 22
Wind_Direction_850mb
213 212 213 218 222 215 218 217 215 216 218 221 226 233 243 254 266 274 281 287 287 292
211 212 211 212 213 210 209 210 211 213 214 215 220 229 243 257 273 285 295 301 304 309
206 205 206 204 207 207 206 205 207 208 208 210 216 226 239 253 267 283 299 310 323 325
202 199 199 206 205 203 200 201 202 202 203 205 210 217 230 247 268 289 306 322 327 323
197 197 200 199 196 196 196 197 197 197 197 198 200 205 218 239 270 302 319 319 316 313
195 198 194 192 192 192 193 194 192 191 192 193 194 199 208 240 298 317 319 317 311 307
195 194 193 191 191 192 190 191 189 189 190 193 198 200 206 243 313 322 325 322 317 310
197 193 191 190 190 189 189 188 190 191 195 198 196 204 220 266 305 320 325 329 327 318
196 193 192 191 191 190 190 191 193 198 198 197 205 210 226 261 294 310 321 329 331 325
200 197 195 194 194 194 194 196 200 200 197 205 210 218 232 253 278 299 310 328 333 334
206 203 199 198 197 197 201 204 202 201 205 207 214 224 240 251 267 287 299 322 330 334
211 208 203 201 203 206 208 204 206 207 208 212 220 229 244 254 264 273 292 313 327 332
219 214 209 217 220 212 208 210 209 209 209 215 223 229 242 254 260 271 287 314 319 328
221 213 219 227 223 213 212 208 208 210 213 219 228 237 244 251 261 264 279 295 306 327